HFA103 LLER-LLBG

Flight info

Callsign HFA103
Flight time N/A
Altitude 15000
Route NURIT J10 AMMIT
Aircraft AT76/M-SDFGIRY/S

Departure

Time 2026-04-22 18:20
Airport Ramon International Airport (LLER)

Arrival

Time N/A
Airport Ben Gurion International Airport (LLBG)
Time Latitude Longitude Altitude Speed Heading
2026-04-22 18:05 29.72639 35.00833 298 ft 0 kts 284°
2026-04-22 18:14 29.72638 35.00839 297 ft 4 kts 284°
2026-04-22 18:14 29.72632 35.00870 294 ft 4 kts 278°
2026-04-22 18:14 29.72630 35.00900 294 ft 4 kts 263°
2026-04-22 18:14 29.72638 35.00926 294 ft 4 kts 209°
2026-04-22 18:15 29.72647 35.00930 297 ft 1 kts 193°
2026-04-22 18:15 29.72648 35.00930 297 ft 0 kts 193°
2026-04-22 18:17 29.72626 35.00925 294 ft 13 kts 193°
2026-04-22 18:17 29.72523 35.00898 294 ft 17 kts 193°
2026-04-22 18:18 29.72421 35.00934 295 ft 17 kts 104°
2026-04-22 18:18 29.72398 35.01054 294 ft 14 kts 92°
2026-04-22 18:18 29.72413 35.01153 296 ft 11 kts 92°
2026-04-22 18:18 29.72395 35.01242 296 ft 12 kts 103°
2026-04-22 18:19 29.72431 35.01333 296 ft 16 kts 18°
2026-04-22 18:19 29.72673 35.01398 294 ft 63 kts 13°
2026-04-22 18:19 29.73278 35.01566 295 ft 114 kts 13°
2026-04-22 18:19 29.74157 35.01806 489 ft 135 kts 13°
2026-04-22 18:20 29.75096 35.02052 886 ft 151 kts 12°
2026-04-22 18:20 29.76205 35.02156 1096 ft 167 kts
2026-04-22 18:20 29.77394 35.02169 1396 ft 171 kts 359°
2026-04-22 18:20 29.78183 35.02172 1666 ft 173 kts 358°
2026-04-22 18:21 29.79452 35.02162 2174 ft 167 kts 360°
2026-04-22 18:21 29.80609 35.02138 2599 ft 167 kts 359°
2026-04-22 18:21 29.81787 35.02115 2929 ft 170 kts 359°
2026-04-22 18:21 29.82976 35.02093 3289 ft 172 kts 359°
2026-04-22 18:22 29.84177 35.02069 3672 ft 173 kts 360°
2026-04-22 18:22 29.85388 35.02054 4013 ft 176 kts 360°
2026-04-22 18:22 29.86615 35.02029 4389 ft 176 kts
2026-04-22 18:22 29.87837 35.02009 4782 ft 176 kts 360°
2026-04-22 18:23 29.89072 35.01990 5055 ft 181 kts 360°
2026-04-22 18:23 29.90336 35.01966 5409 ft 182 kts 359°
2026-04-22 18:23 29.91615 35.01944 5720 ft 185 kts 359°
2026-04-22 18:24 29.93750 35.02145 6178 ft 188 kts 18°
2026-04-22 18:24 29.95002 35.02638 6446 ft 191 kts 19°
2026-04-22 18:24 29.97546 35.03608 7036 ft 194 kts 17°
2026-04-22 18:25 29.98846 35.04045 7344 ft 195 kts 16°
2026-04-22 18:25 30.00156 35.04469 7643 ft 197 kts 15°
2026-04-22 18:25 30.01482 35.04890 7941 ft 198 kts 15°
2026-04-22 18:26 30.04167 35.05714 8523 ft 201 kts 15°
2026-04-22 18:26 30.05527 35.06121 8810 ft 203 kts 14°
2026-04-22 18:26 30.06896 35.06538 9103 ft 204 kts 15°
2026-04-22 18:26 30.08280 35.06912 9391 ft 205 kts 11°
2026-04-22 18:27 30.09692 35.07205 9669 ft 207 kts
2026-04-22 18:27 30.11118 35.07472 9950 ft 208 kts
2026-04-22 18:27 30.12548 35.07739 10224 ft 209 kts
2026-04-22 18:27 30.13985 35.08013 10481 ft 209 kts
2026-04-22 18:28 30.15419 35.08305 10752 ft 210 kts
2026-04-22 18:28 30.16857 35.08600 11028 ft 210 kts
2026-04-22 18:28 30.18298 35.08896 11297 ft 211 kts
2026-04-22 18:28 30.19744 35.09194 11558 ft 211 kts
2026-04-22 18:29 30.21192 35.09494 11827 ft 212 kts
2026-04-22 18:29 30.22646 35.09791 12092 ft 212 kts
2026-04-22 18:29 30.24100 35.10084 12361 ft 212 kts
2026-04-22 18:29 30.25555 35.10369 12615 ft 213 kts
2026-04-22 18:30 30.27016 35.10650 12879 ft 213 kts
2026-04-22 18:30 30.29952 35.11197 13421 ft 214 kts
2026-04-22 18:30 30.31423 35.11462 13684 ft 214 kts
2026-04-22 18:31 30.32901 35.11724 13919 ft 215 kts
2026-04-22 18:31 30.34378 35.11999 14136 ft 215 kts
2026-04-22 18:31 30.35856 35.12285 14354 ft 216 kts
2026-04-22 18:31 30.37339 35.12571 14565 ft 216 kts
2026-04-22 18:32 30.38802 35.12852 14770 ft 217 kts
2026-04-22 18:32 30.40293 35.13141 14964 ft 217 kts
2026-04-22 18:32 30.41783 35.13429 15182 ft 218 kts
2026-04-22 18:32 30.43279 35.13717 15401 ft 218 kts
2026-04-22 18:33 30.44777 35.14006 15614 ft 218 kts
2026-04-22 18:33 30.46279 35.14296 15816 ft 219 kts
2026-04-22 18:33 30.47794 35.14588 15948 ft 224 kts
2026-04-22 18:33 30.49354 35.14889 16002 ft 230 kts
2026-04-22 18:34 30.50959 35.15199 16036 ft 237 kts
2026-04-22 18:34 30.52609 35.15515 16045 ft 243 kts
2026-04-22 18:34 30.54298 35.15839 16054 ft 249 kts
2026-04-22 18:34 30.56020 35.16174 16056 ft 252 kts
2026-04-22 18:35 30.57698 35.16837 16057 ft 257 kts 21°
2026-04-22 18:35 30.59325 35.17731 16058 ft 261 kts 23°
2026-04-22 18:35 30.60973 35.18647 16060 ft 264 kts 22°
2026-04-22 18:35 30.62648 35.19531 16061 ft 265 kts 20°
2026-04-22 18:36 30.64350 35.20371 16057 ft 267 kts 20°
2026-04-22 18:36 30.66057 35.21211 16058 ft 267 kts 20°
2026-04-22 18:36 30.67612 35.21974 16060 ft 268 kts 20°
2026-04-22 18:36 30.69330 35.22815 16059 ft 269 kts 20°
2026-04-22 18:37 30.71054 35.23662 16063 ft 269 kts 20°
2026-04-22 18:37 30.72777 35.24511 16062 ft 270 kts 20°
2026-04-22 18:37 30.74509 35.25364 16066 ft 270 kts 20°
2026-04-22 18:37 30.76243 35.26219 16063 ft 271 kts 20°
2026-04-22 18:38 30.77977 35.27072 16061 ft 271 kts 20°
2026-04-22 18:38 30.79711 35.27927 16061 ft 271 kts 20°
2026-04-22 18:38 30.81447 35.28782 16060 ft 271 kts 20°
2026-04-22 18:39 30.84922 35.30493 16060 ft 271 kts 20°
2026-04-22 18:39 30.86655 35.31349 16059 ft 271 kts 20°
2026-04-22 18:39 30.88394 35.32207 16061 ft 271 kts 20°
2026-04-22 18:39 30.90129 35.33064 16059 ft 271 kts 20°
2026-04-22 18:40 30.91866 35.33921 16065 ft 271 kts 20°
2026-04-22 18:40 30.93603 35.34779 16065 ft 271 kts 20°
2026-04-22 18:40 30.95379 35.35403 16065 ft 264 kts
2026-04-22 18:40 30.97203 35.35566 16061 ft 263 kts 359°
2026-04-22 18:41 30.98945 35.35646 16062 ft 263 kts 359°
2026-04-22 18:41 30.99812 35.35689 16063 ft 263 kts 360°
2026-04-22 18:41 31.01642 35.35826 16064 ft 264 kts
2026-04-22 18:41 31.03477 35.36016 16062 ft 265 kts